Time,TemperatureF,DewpointF,PressureIn,WindDirection,WindDirectionDegrees,WindSpeedMPH,WindSpeedGustMPH,Humidity,HourlyPrecipIn,Conditions,Clouds,dailyrainin,SoftwareType,DateUTC
2013-01-24 00:03:00,68.0,61.0,30.25,SSE,161,3.0,5.0,78,0.00,,,0.01,,2013-01-24 00:03:00,
2013-01-24 00:12:00,68.0,61.0,30.25,SSE,161,3.0,5.0,78,0.00,,,0.01,,2013-01-24 00:12:00,
2013-01-24 00:22:00,67.0,61.0,30.26,SSE,159,2.0,5.0,82,0.00,,,0.01,,2013-01-24 00:22:00,
2013-01-24 00:32:00,67.0,62.0,30.26,SSE,152,1.0,5.0,83,0.00,,,0.01,,2013-01-24 00:32:00,
2013-01-24 00:42:00,67.0,62.0,30.26,SSE,152,1.0,5.0,83,0.00,,,0.01,,2013-01-24 00:42:00,
2013-01-24 00:53:00,66.0,61.0,30.26,SSE,158,2.0,6.0,84,0.00,,,0.01,,2013-01-24 00:53:00,
2013-01-24 01:03:00,66.0,61.0,30.25,SSE,165,3.0,6.0,85,0.00,,,0.01,,2013-01-24 01:03:00,
2013-01-24 01:12:00,66.0,61.0,30.25,SSE,165,3.0,6.0,85,0.00,,,0.01,,2013-01-24 01:12:00,
2013-01-24 01:23:00,66.0,62.0,30.25,SSE,158,3.0,6.0,86,0.00,,,0.01,,2013-01-24 01:23:00,
2013-01-24 01:33:00,66.0,62.0,30.25,SSE,160,3.0,5.0,86,0.00,,,0.01,,2013-01-24 01:33:00,
2013-01-24 01:42:00,66.0,62.0,30.25,SSE,160,3.0,5.0,86,0.00,,,0.01,,2013-01-24 01:42:00,
2013-01-24 01:52:00,65.0,61.0,30.24,SSE,153,3.0,5.0,87,0.00,,,0.01,,2013-01-24 01:52:00,
2013-01-24 02:02:00,65.0,61.0,30.24,SSE,159,3.0,5.0,87,0.00,,,0.01,,2013-01-24 02:02:00,
2013-01-24 02:12:00,65.0,61.0,30.24,SSE,159,3.0,5.0,87,0.00,,,0.01,,2013-01-24 02:12:00,
2013-01-24 02:22:00,65.0,61.0,30.24,SSE,156,3.0,6.0,87,0.00,,,0.01,,2013-01-24 02:22:00,
2013-01-24 02:33:00,65.0,61.0,30.24,SSE,159,3.0,7.0,87,0.00,,,0.01,,2013-01-24 02:33:00,
2013-01-24 02:42:00,65.0,61.0,30.24,SSE,159,3.0,7.0,87,0.00,,,0.01,,2013-01-24 02:42:00,
2013-01-24 02:52:00,65.0,61.0,30.24,SSE,159,3.0,7.0,87,0.00,,,0.01,,2013-01-24 02:52:00,
2013-01-24 03:02:00,65.0,61.0,30.24,SSE,157,3.0,5.0,86,0.00,,,0.01,,2013-01-24 03:02:00,
2013-01-24 03:12:00,65.0,61.0,30.24,SSE,157,3.0,5.0,86,0.00,,,0.01,,2013-01-24 03:12:00,
2013-01-24 03:22:00,65.0,61.0,30.24,South,179,3.0,7.0,86,0.00,,,0.01,,2013-01-24 03:22:00,
2013-01-24 03:32:00,65.0,61.0,30.24,SSE,159,3.0,6.0,86,0.00,,,0.01,,2013-01-24 03:32:00,
2013-01-24 03:43:00,65.0,61.0,30.24,SSE,159,3.0,6.0,86,0.00,,,0.01,,2013-01-24 03:43:00,
2013-01-24 03:53:00,65.0,61.0,30.24,SSE,165,2.0,5.0,86,0.00,,,0.01,,2013-01-24 03:53:00,
2013-01-24 04:02:00,64.0,60.0,30.24,South,169,2.0,4.0,86,0.00,,,0.01,,2013-01-24 04:02:00,
2013-01-24 04:12:00,64.0,60.0,30.24,South,169,2.0,4.0,86,0.00,,,0.01,,2013-01-24 04:12:00,
2013-01-24 04:22:00,64.0,60.0,30.25,SSE,167,2.0,5.0,86,0.00,,,0.01,,2013-01-24 04:22:00,
2013-01-24 04:32:00,64.0,60.0,30.25,South,171,2.0,4.0,86,0.00,,,0.01,,2013-01-24 04:32:00,
2013-01-24 04:42:00,64.0,60.0,30.25,South,171,2.0,4.0,86,0.00,,,0.01,,2013-01-24 04:42:00,
2013-01-24 04:53:00,64.0,60.0,30.25,SSE,163,1.0,2.0,86,0.00,,,0.01,,2013-01-24 04:53:00,
2013-01-24 05:03:00,63.0,59.0,30.25,SSE,162,1.0,3.0,87,0.00,,,0.01,,2013-01-24 05:03:00,
2013-01-24 05:12:00,63.0,59.0,30.25,SSE,162,1.0,3.0,87,0.00,,,0.01,,2013-01-24 05:12:00,
2013-01-24 05:22:00,63.0,59.0,30.25,SSE,161,0.0,2.0,88,0.00,,,0.01,,2013-01-24 05:22:00,
2013-01-24 05:32:00,63.0,59.0,30.25,SSE,164,1.0,3.0,88,0.00,,,0.01,,2013-01-24 05:32:00,
2013-01-24 05:42:00,63.0,59.0,30.25,SSE,164,1.0,3.0,88,0.00,,,0.01,,2013-01-24 05:42:00,
2013-01-24 05:53:00,63.0,60.0,30.25,SSE,162,1.0,3.0,89,0.00,,,0.01,,2013-01-24 05:53:00,
2013-01-24 06:02:00,64.0,60.0,30.25,SSE,159,2.0,4.0,88,0.00,,,0.01,,2013-01-24 06:02:00,
2013-01-24 06:12:00,64.0,60.0,30.25,SSE,159,2.0,4.0,88,0.00,,,0.01,,2013-01-24 06:12:00,
2013-01-24 06:22:00,64.0,60.0,30.24,South,170,1.0,4.0,88,0.00,,,0.01,,2013-01-24 06:22:00,
2013-01-24 06:32:00,64.0,60.0,30.24,SSE,161,1.0,3.0,88,0.00,,,0.01,,2013-01-24 06:32:00,
2013-01-24 06:42:00,64.0,60.0,30.24,SSE,161,1.0,3.0,88,0.00,,,0.01,,2013-01-24 06:42:00,
2013-01-24 06:52:00,64.0,60.0,30.24,SSE,157,1.0,3.0,88,0.00,,,0.01,,2013-01-24 06:52:00,
2013-01-24 07:02:00,64.0,60.0,30.24,SSE,155,0.0,2.0,88,0.00,,,0.01,,2013-01-24 07:02:00,
2013-01-24 07:12:00,64.0,60.0,30.24,SSE,155,0.0,2.0,88,0.00,,,0.01,,2013-01-24 07:12:00,
2013-01-24 07:22:00,64.0,61.0,30.24,SSW,192,1.0,3.0,89,0.00,,,0.01,,2013-01-24 07:22:00,
2013-01-24 07:33:00,64.0,60.0,30.24,South,172,0.0,3.0,88,0.00,,,0.01,,2013-01-24 07:33:00,
2013-01-24 07:42:00,64.0,60.0,30.24,South,172,0.0,3.0,88,0.00,,,0.01,,2013-01-24 07:42:00,
2013-01-24 07:53:00,63.0,60.0,30.24,South,175,0.0,2.0,89,0.00,,,0.01,,2013-01-24 07:53:00,
2013-01-24 08:02:00,63.0,60.0,30.24,SSE,160,1.0,2.0,89,0.00,,,0.01,,2013-01-24 08:02:00,
2013-01-24 08:12:00,63.0,60.0,30.24,SSE,160,1.0,2.0,89,0.00,,,0.01,,2013-01-24 08:12:00,
2013-01-24 08:22:00,64.0,61.0,30.23,South,180,0.0,5.0,89,0.00,,,0.00,,2013-01-24 08:22:00,
2013-01-24 08:33:00,64.0,61.0,30.23,South,175,1.0,3.0,89,0.00,,,0.00,,2013-01-24 08:33:00,
2013-01-24 08:42:00,64.0,61.0,30.23,South,175,1.0,3.0,89,0.00,,,0.00,,2013-01-24 08:42:00,
2013-01-24 08:53:00,64.0,61.0,30.23,South,169,1.0,2.0,89,0.00,,,0.00,,2013-01-24 08:53:00,
2013-01-24 09:02:00,63.0,60.0,30.23,South,171,0.0,2.0,90,0.00,,,0.00,,2013-01-24 09:02:00,
2013-01-24 09:12:00,63.0,60.0,30.23,South,171,0.0,2.0,90,0.00,,,0.00,,2013-01-24 09:12:00,
2013-01-24 09:23:00,63.0,60.0,30.23,South,188,0.0,1.0,90,0.00,,,0.00,,2013-01-24 09:23:00,
2013-01-24 09:33:00,63.0,60.0,30.23,SSE,165,0.0,2.0,90,0.00,,,0.00,,2013-01-24 09:33:00,
2013-01-24 09:42:00,63.0,60.0,30.23,SSE,165,0.0,2.0,90,0.00,,,0.00,,2013-01-24 09:42:00,
2013-01-24 09:53:00,63.0,60.0,30.22,SSE,158,0.0,1.0,90,0.00,,,0.00,,2013-01-24 09:53:00,
2013-01-24 10:02:00,63.0,60.0,30.22,SSE,153,0.0,2.0,91,0.00,,,0.00,,2013-01-24 10:02:00,
2013-01-24 10:12:00,63.0,60.0,30.22,SSE,153,0.0,2.0,91,0.00,,,0.00,,2013-01-24 10:12:00,
2013-01-24 10:22:00,63.0,60.0,30.22,South,171,0.0,2.0,91,0.00,,,0.00,,2013-01-24 10:22:00,
2013-01-24 10:33:00,62.0,59.0,30.22,South,172,1.0,2.0,91,0.00,,,0.00,,2013-01-24 10:33:00,
2013-01-24 10:43:00,62.0,59.0,30.22,South,172,1.0,2.0,91,0.00,,,0.00,,2013-01-24 10:43:00,
2013-01-24 10:53:00,62.0,59.0,30.23,South,178,0.0,1.0,91,0.00,,,0.00,,2013-01-24 10:53:00,
2013-01-24 11:02:00,62.0,59.0,30.23,South,178,0.0,1.0,91,0.00,,,0.00,,2013-01-24 11:02:00,
2013-01-24 11:12:00,62.0,59.0,30.23,South,178,0.0,1.0,91,0.00,,,0.00,,2013-01-24 11:12:00,
2013-01-24 11:22:00,62.0,59.0,30.23,SSW,194,1.0,2.0,91,0.01,,,0.01,,2013-01-24 11:22:00,
2013-01-24 11:33:00,62.0,60.0,30.23,SSW,198,0.0,2.0,92,0.01,,,0.01,,2013-01-24 11:33:00,
2013-01-24 11:43:00,62.0,60.0,30.23,SSW,198,0.0,2.0,92,0.01,,,0.01,,2013-01-24 11:43:00,
2013-01-24 11:53:00,61.0,59.0,30.24,SSW,198,0.0,1.0,92,0.01,,,0.01,,2013-01-24 11:53:00,
2013-01-24 12:03:00,61.0,59.0,30.24,SSW,198,0.0,0.0,92,0.01,,,0.01,,2013-01-24 12:03:00,
2013-01-24 12:12:00,61.0,59.0,30.24,SSW,198,0.0,0.0,92,0.01,,,0.01,,2013-01-24 12:12:00,
2013-01-24 12:22:00,62.0,60.0,30.24,SSW,198,0.0,0.0,92,0.00,,,0.01,,2013-01-24 12:22:00,
2013-01-24 12:33:00,62.0,60.0,30.25,SSW,198,0.0,1.0,93,0.00,,,0.01,,2013-01-24 12:33:00,
2013-01-24 12:42:00,62.0,60.0,30.25,SSW,198,0.0,1.0,93,0.00,,,0.01,,2013-01-24 12:42:00,
2013-01-24 12:53:00,62.0,60.0,30.25,SSW,198,0.0,0.0,92,0.00,,,0.01,,2013-01-24 12:53:00,
2013-01-24 13:02:00,62.0,60.0,30.25,SSW,198,0.0,0.0,92,0.00,,,0.01,,2013-01-24 13:02:00,
2013-01-24 13:12:00,62.0,60.0,30.25,SSW,198,0.0,0.0,92,0.00,,,0.01,,2013-01-24 13:12:00,
2013-01-24 13:23:00,63.0,61.0,30.26,South,190,0.0,1.0,93,0.00,,,0.01,,2013-01-24 13:23:00,
2013-01-24 13:33:00,63.0,61.0,30.25,South,179,0.0,1.0,93,0.00,,,0.01,,2013-01-24 13:33:00,
2013-01-24 13:42:00,63.0,61.0,30.25,South,179,0.0,1.0,93,0.00,,,0.01,,2013-01-24 13:42:00,
2013-01-24 13:53:00,64.0,62.0,30.26,South,179,0.0,0.0,93,0.00,,,0.01,,2013-01-24 13:53:00,
2013-01-24 14:02:00,64.0,62.0,30.26,South,179,0.0,0.0,93,0.00,,,0.01,,2013-01-24 14:02:00,
2013-01-24 14:12:00,64.0,62.0,30.26,South,179,0.0,0.0,93,0.00,,,0.01,,2013-01-24 14:12:00,
2013-01-24 14:23:00,64.0,62.0,30.28,East,96,0.0,3.0,93,0.00,,,0.01,,2013-01-24 14:23:00,
2013-01-24 14:33:00,65.0,63.0,30.28,East,96,0.0,1.0,93,0.00,,,0.01,,2013-01-24 14:33:00,
2013-01-24 14:43:00,65.0,63.0,30.28,East,96,0.0,1.0,93,0.00,,,0.01,,2013-01-24 14:43:00,
2013-01-24 14:54:00,65.0,63.0,30.29,East,84,1.0,3.0,93,0.00,,,0.01,,2013-01-24 14:54:00,
2013-01-24 15:03:00,65.0,63.0,30.29,East,91,0.0,2.0,93,0.00,,,0.01,,2013-01-24 15:03:00,
2013-01-24 15:12:00,65.0,63.0,30.29,East,91,0.0,2.0,93,0.00,,,0.01,,2013-01-24 15:12:00,
2013-01-24 15:23:00,67.0,65.0,30.29,SSE,147,1.0,3.0,93,0.00,,,0.01,,2013-01-24 15:23:00,
2013-01-24 15:33:00,67.0,65.0,30.29,SSE,147,1.0,3.0,93,0.00,,,0.01,,2013-01-24 15:33:00,
2013-01-24 15:43:00,67.0,65.0,30.29,SSE,147,0.0,2.0,93,0.00,,,0.01,,2013-01-24 15:43:00,
2013-01-24 15:53:00,68.0,66.0,30.30,South,172,2.0,4.0,92,0.00,,,0.01,,2013-01-24 15:53:00,
2013-01-24 16:03:00,69.0,66.0,30.29,SSE,150,2.0,4.0,91,0.00,,,0.01,,2013-01-24 16:03:00,
2013-01-24 16:12:00,69.0,66.0,30.29,SSE,150,2.0,4.0,91,0.00,,,0.01,,2013-01-24 16:12:00,
2013-01-24 16:23:00,70.0,67.0,30.30,SSE,161,1.0,4.0,90,0.00,,,0.01,,2013-01-24 16:23:00,
2013-01-24 16:33:00,70.0,67.0,30.30,SSE,148,1.0,4.0,89,0.00,,,0.01,,2013-01-24 16:33:00,
2013-01-24 16:42:00,70.0,67.0,30.30,SSE,148,1.0,4.0,89,0.00,,,0.01,,2013-01-24 16:42:00,
2013-01-24 17:02:00,72.0,68.0,30.30,South,178,1.0,3.0,86,0.00,,,0.01,,2013-01-24 17:02:00,
2013-01-24 17:12:00,72.0,68.0,30.30,South,178,1.0,3.0,86,0.00,,,0.01,,2013-01-24 17:12:00,
2013-01-24 17:22:00,72.0,67.0,30.29,SE,144,3.0,6.0,84,0.00,,,0.01,,2013-01-24 17:22:00,
2013-01-24 17:32:00,73.0,68.0,30.29,WSW,244,2.0,7.0,84,0.00,,,0.01,,2013-01-24 17:32:00,
2013-01-24 17:42:00,73.0,68.0,30.29,WSW,244,2.0,7.0,84,0.00,,,0.01,,2013-01-24 17:42:00,
2013-01-24 17:52:00,74.0,68.0,30.28,SSE,150,2.0,6.0,82,0.00,,,0.01,,2013-01-24 17:52:00,
2013-01-24 18:02:00,74.0,67.0,30.27,SW,229,4.0,9.0,80,0.00,,,0.01,,2013-01-24 18:02:00,
2013-01-24 18:12:00,75.0,67.0,30.27,SW,234,5.0,11.0,77,0.00,,,0.01,,2013-01-24 18:12:00,
2013-01-24 18:22:00,75.0,67.0,30.27,SW,234,5.0,11.0,77,0.00,,,0.01,,2013-01-24 18:22:00,
2013-01-24 18:32:00,75.0,67.0,30.26,SW,215,5.0,12.0,76,0.00,,,0.01,,2013-01-24 18:32:00,
2013-01-24 18:42:00,75.0,67.0,30.26,SW,215,5.0,12.0,76,0.00,,,0.01,,2013-01-24 18:42:00,
2013-01-24 18:53:00,75.0,67.0,30.25,SW,220,3.0,10.0,76,0.00,,,0.01,,2013-01-24 18:53:00,
2013-01-24 19:02:00,75.0,67.0,30.24,SSW,193,2.0,9.0,76,0.00,,,0.01,,2013-01-24 19:02:00,
2013-01-24 19:12:00,75.0,67.0,30.23,SSW,203,3.0,10.0,75,0.00,,,0.01,,2013-01-24 19:12:00,
2013-01-24 19:22:00,75.0,67.0,30.23,SSW,203,3.0,10.0,75,0.00,,,0.01,,2013-01-24 19:22:00,
2013-01-24 19:32:00,75.0,67.0,30.23,SW,229,4.0,9.0,75,0.00,,,0.01,,2013-01-24 19:32:00,
2013-01-24 19:42:00,75.0,66.0,30.22,WNW,282,6.0,12.0,74,0.00,,,0.01,,2013-01-24 19:42:00,
2013-01-24 19:52:00,75.0,66.0,30.22,WNW,282,6.0,12.0,74,0.00,,,0.01,,2013-01-24 19:52:00,
2013-01-24 20:02:00,75.0,66.0,30.22,South,188,5.0,11.0,74,0.00,,,0.01,,2013-01-24 20:02:00,
2013-01-24 20:11:00,75.0,67.0,30.21,SSW,212,6.0,11.0,75,0.00,,,0.01,,2013-01-24 20:11:00,
2013-01-24 20:22:00,75.0,67.0,30.21,SSW,212,6.0,11.0,75,0.00,,,0.01,,2013-01-24 20:22:00,
2013-01-24 20:32:00,75.0,67.0,30.20,SW,223,4.0,11.0,75,0.00,,,0.01,,2013-01-24 20:32:00,
2013-01-24 20:42:00,75.0,66.0,30.20,SE,145,5.0,10.0,73,0.00,,,0.01,,2013-01-24 20:42:00,
2013-01-24 20:52:00,75.0,66.0,30.20,SE,145,5.0,10.0,73,0.00,,,0.01,,2013-01-24 20:52:00,
2013-01-24 21:02:00,76.0,67.0,30.19,SW,218,5.0,9.0,73,0.00,,,0.01,,2013-01-24 21:02:00,
2013-01-24 21:12:00,76.0,66.0,30.19,SW,230,5.0,10.0,72,0.00,,,0.01,,2013-01-24 21:12:00,
2013-01-24 21:22:00,76.0,66.0,30.19,SW,230,5.0,10.0,72,0.00,,,0.01,,2013-01-24 21:22:00,
2013-01-24 21:33:00,76.0,66.0,30.19,SSE,149,5.0,11.0,72,0.00,,,0.01,,2013-01-24 21:33:00,
2013-01-24 21:42:00,76.0,66.0,30.19,SSE,149,5.0,11.0,72,0.00,,,0.01,,2013-01-24 21:42:00,
2013-01-24 21:53:00,76.0,66.0,30.18,SSE,165,4.0,13.0,71,0.00,,,0.01,,2013-01-24 21:53:00,
2013-01-24 22:02:00,76.0,66.0,30.18,SW,223,4.0,12.0,72,0.00,,,0.01,,2013-01-24 22:02:00,
2013-01-24 22:12:00,76.0,66.0,30.18,SW,223,4.0,12.0,72,0.00,,,0.01,,2013-01-24 22:12:00,
2013-01-24 22:22:00,76.0,66.0,30.19,SSE,155,5.0,8.0,72,0.00,,,0.01,,2013-01-24 22:22:00,
2013-01-24 22:32:00,75.0,65.0,30.19,SSW,209,3.0,9.0,72,0.00,,,0.01,,2013-01-24 22:32:00,
2013-01-24 22:42:00,75.0,65.0,30.19,SSW,209,3.0,9.0,72,0.00,,,0.01,,2013-01-24 22:42:00,
2013-01-24 22:53:00,75.0,66.0,30.18,SW,217,4.0,10.0,73,0.00,,,0.01,,2013-01-24 22:53:00,
2013-01-24 23:02:00,75.0,66.0,30.18,South,169,3.0,8.0,73,0.00,,,0.01,,2013-01-24 23:02:00,
2013-01-24 23:12:00,75.0,66.0,30.18,South,169,3.0,8.0,73,0.00,,,0.01,,2013-01-24 23:12:00,
2013-01-24 23:22:00,74.0,66.0,30.18,SSE,147,1.0,8.0,75,0.00,,,0.01,,2013-01-24 23:22:00,
2013-01-24 23:32:00,73.0,65.0,30.18,SSE,152,2.0,6.0,76,0.00,,,0.01,,2013-01-24 23:32:00,
2013-01-24 23:42:00,73.0,65.0,30.18,SSE,152,2.0,6.0,76,0.00,,,0.01,,2013-01-24 23:42:00,
2013-01-24 23:52:00,71.0,64.0,30.19,SSE,165,1.0,5.0,78,0.00,,,0.01,,2013-01-24 23:52:00,